Portada
METAR-TAF:

METAR-TAF

Aeroports :

Wakkanai, Japó

latitud: 45-24N, longitud: 141-48E, altitud: 8 m

Observació

L'informe es va fer fa 14 hores i 1 minuts, a les 09:00 UTC
Vent 23 kt del Oest
Temperatura -3°C
Humitat 68%
Pressió 1000 hPa
Visibilitat 10 km o més
Escasses núvols a una alçada de 700 ft
Núvols disperses a una alçada de 3000 ft
Cel ennuvolat a una alçada de 4000 ft
xàfecs de neu

METAR: RJCW 190900Z 26023KT 9999 -SHSN FEW007 SCT030 BKN040 M03/M08 Q1000

Hora: 08:01 (23:01 UTC)


TAF: manca

Observacions i pronòstics meteorològics de més de 4000 aeroports (METAR i TAF).

Les estacions disponibles són els punts grocs i vermells al mapa.

Posi el ratolí al punt desitjat per veure el nom de l'estació.

Feu clic per veure les observacions i els pronòstics meteorològics.

Per canviar el mapa: feu clic els botons verds amb una creu de color negre per apropar; al botó verd amb un guió per allunyar la imatge; o en les fletxes verdes per a mapes adjacents.


METAR-TAF: